Location: Kendal
(54.3260°N, 2.7460°W)
Time: 21:50:30
(UTC+00:00)

Envisat - Visible Passes

Search period start: 21 January 2022 00:00
Search period end: 31 January 2022 00:00
Orbit: 764 x 766 km, 98.2° (Epoch: 21 January)

Date Brightness Start Highest point End Pass type
(mag) Time Alt. Az. Time Alt. Az. Time Alt. Az.
21 Jan 5.2 04:05:43 10° NE 04:09:43 23° E 04:13:41 10° SE visible
21 Jan 2.9 05:44:09 10° NNE 05:49:13 69° WNW 05:54:16 10° SSW visible
21 Jan 4.5 07:24:24 10° NNW 07:27:24 16° NW 07:30:24 10° W visible
21 Jan 5.3 17:06:34 10° SSW 17:10:52 27° W 17:15:13 10° NNW visible
22 Jan 5.9 03:30:24 10° ENE 03:32:17 12° E 03:34:09 10° ESE visible
22 Jan 3.3 05:07:14 10° NNE 05:12:19 65° ESE 05:17:23 10° S visible
22 Jan 3.9 06:46:49 10° N 06:51:00 26° WNW 06:55:09 10° WSW visible
23 Jan 4.5 04:30:35 10° NNE 04:35:15 35° E 04:39:52 10° SSE visible
23 Jan 3.2 06:09:34 10° N 06:14:24 45° WNW 06:19:13 10° SW visible
23 Jan 5.8 17:33:03 10° SW 17:36:28 18° W 17:39:55 10° NW visible
24 Jan 5.4 03:54:24 10° NE 03:57:58 19° E 04:01:31 10° SE visible
24 Jan 2.9 05:32:31 10° NNE 05:37:39 82° WNW 05:42:43 10° SSW visible
24 Jan 4.3 07:12:32 10° N 07:15:58 19° NW 07:19:24 10° W visible
25 Jan 3.6 04:55:41 10° NNE 05:00:41 54° E 05:05:40 10° S visible
25 Jan 3.7 06:35:05 10° N 06:39:30 31° WNW 06:43:55 10° WSW visible
25 Jan 6.2 18:00:38 10° W 18:02:10 11° W 18:03:42 10° WNW visible
26 Jan 4.8 04:19:08 10° NNE 04:23:33 29° E 04:27:56 10° SSE visible
26 Jan 3.0 05:57:54 10° N 06:02:52 54° WNW 06:07:48 10° SW visible
26 Jan 5.7 17:20:51 10° SW 17:24:44 22° W 17:28:38 10° NW visible
27 Jan 5.7 03:43:12 10° NE 03:46:12 16° E 03:49:12 10° ESE visible
27 Jan 3.0 05:20:55 10° NNE 05:26:02 83° ESE 05:31:08 10° SSW visible
27 Jan 4.2 07:00:44 10° N 07:04:31 22° NW 07:08:18 10° WSW visible
28 Jan 4.0 04:44:09 10° NNE 04:49:03 44° E 04:53:53 10° S visible
28 Jan 3.5 06:23:22 10° N 06:28:00 36° WNW 06:32:36 10° SW visible
28 Jan 6.0 17:47:47 10° WSW 17:50:23 14° W 17:53:00 10° NW visible
29 Jan 5.1 04:07:43 10° NE 04:11:50 24° E 04:15:55 10° SE visible
29 Jan 2.9 05:46:15 10° N 05:51:18 65° WNW 05:56:20 10° SSW visible
30 Jan 5.9 03:32:14 10° ENE 03:34:26 13° E 03:36:37 10° ESE visible
30 Jan 3.2 05:09:20 10° NNE 05:14:26 69° ESE 05:19:29 10° S visible
30 Jan 4.0 06:48:57 10° N 06:53:03 25° WNW 06:57:08 10° WSW visible
